Sussex, Wisconsin, United States (53089)
Lat: 43.13N, Lon: 88.22W
Wx Zone: WIZ065
Local Info
Past Weather Observations for Today

NOTE: This archive is for the closest National Weather Service station to Sussex. Information may differ from the station used for current weather conditions.

Click here for Long-term Archive

Time Weather Temperature Dewpoint Humidity Pressure Winds Precip Visibility
12:45
Overcast
36°F / 2°C 19°F / -7°C 52% 30.27 in
(1025 mb)
NNW 18.4 mph
(NNW 30 kph)
- 10SM
11:45
Overcast
34°F / 1°C 21°F / -6°C 60% 30.24 in
(1024 mb)
NNW 24.2 mph
(NNW 39 kph)
- 10SM
10:45
Overcast
34°F / 1°C 21°F / -6°C 60% 30.24 in
(1024 mb)
NNW 21.9 mph
(NNW 35 kph)
- 10SM
09:45
Overcast
34°F / 1°C 21°F / -6°C 60% 30.21 in
(1023 mb)
NNW 17.3 mph
(NNW 28 kph)
- 10SM
08:45
Overcast
34°F / 1°C 21°F / -6°C 60% 30.21 in
(1023 mb)
NNW 18.4 mph
(NNW 30 kph)
- 10SM
07:45
Overcast
34°F / 1°C 25°F / -4°C 70% 30.18 in
(1022 mb)
NNW 21.9 mph
(NNW 35 kph)
- 10SM
06:45
Overcast
34°F / 1°C 28°F / -2°C 81% 30.15 in
(1021 mb)
NNW 15 mph
(NNW 24 kph)
- 10SM
06:10
Overcast
34°F / 1°C 28°F / -2°C 81% 30.12 in
(1020 mb)
NNW 19.6 mph
(NNW 32 kph)
- 10SM
05:45
Overcast
32°F / 0°C 30°F / -1°C 93% 30.12 in
(1020 mb)
NW 18.4 mph
(NW 30 kph)
- 10SM
04:45
Overcast
Light Snow
32°F / 0°C 30°F / -1°C 93% 30.09 in
(1019 mb)
NW 17.3 mph
(NW 28 kph)
- 3SM
04:35
Overcast
Light Snow
32°F / 0°C 30°F / -1°C 93% 30.09 in
(1019 mb)
NW 11.5 mph
(NW 19 kph)
- 1 3/4SM
04:15
Overcast
Light Snow
32°F / 0°C 30°F / -1°C 93% 30.09 in
(1019 mb)
NW 17.3 mph
(NW 28 kph)
- 10SM
03:55
Overcast
Light Snow
32°F / 0°C 30°F / -1°C 93% 30.09 in
(1019 mb)
NW 16.1 mph
(NW 26 kph)
- 2 1/2SM
03:35
Overcast
Light Snow
32°F / 0°C 30°F / -1°C 93% 30.09 in
(1019 mb)
NW 16.1 mph
(NW 26 kph)
- 7SM
03:15
Overcast
34°F / 1°C 28°F / -2°C 81% 30.06 in
(1018 mb)
NW 24.2 mph
(NW 39 kph)
- 10SM
02:55
Overcast
34°F / 1°C 30°F / -1°C 87% 30.06 in
(1018 mb)
NW 20.7 mph
(NW 33 kph)
- 10SM
02:35
Overcast
36°F / 2°C 32°F / 0°C 87% 30.06 in
(1018 mb)
NW 16.1 mph
(NW 26 kph)
- 10SM
02:15
Overcast
36°F / 2°C 30°F / -1°C 81% 30.06 in
(1018 mb)
NW 19.6 mph
(NW 32 kph)
- 10SM
01:55
Overcast
36°F / 2°C 30°F / -1°C 81% 30.06 in
(1018 mb)
NW 15 mph
(NW 24 kph)
- 10SM
01:35
Overcast
37°F / 3°C 30°F / -1°C 75% 30.06 in
(1018 mb)
NNW 20.7 mph
(NNW 33 kph)
- 10SM
01:15
Overcast
39°F / 4°C 32°F / 0°C 75% 30.04 in
(1017 mb)
NW 17.3 mph
(NW 28 kph)
- 10SM
00:55
Overcast
41°F / 5°C 32°F / 0°C 70% 30.04 in
(1017 mb)
NW 15 mph
(NW 24 kph)
- 10SM
00:35
Overcast
41°F / 5°C 32°F / 0°C 70% 30.04 in
(1017 mb)
NW 17.3 mph
(NW 28 kph)
- 10SM
00:15
Overcast
41°F / 5°C 32°F / 0°C 70% 30.04 in
(1017 mb)
NW 16.1 mph
(NW 26 kph)
- 10SM
Time Weather Temperature Dewpoint Humidity Pressure Winds Precip Visibility


Weather for websites

WeatherForYou.com, LLC is not responsible for any damages or problems caused by this service. Current weather conditions are obtained from the closest station including government and personal stations which may have varying degrees of accuracy. Weather forecasts are derived from the NOAA NDFD. Like all things, this site belongs to Jesus Christ... He just trusts me to maintain it. If you have any questions or comments email webmaster@weatherforyou.com

Copyright © 2014, WeatherForYou.com LLC. All rights reserved.